Location: Holyhead Bay
(53.3667°N, 4.6667°W)
Time: 09:15:37
(UTC+00:00)

deb Agena D - Visible Passes

Search period start: 16 June 2021 00:00
Search period end: 26 June 2021 00:00
Orbit: 783 x 841 km, 70.1° (Epoch: 15 June)

Date Brightness Start Highest point End Pass type
(mag) Time Alt. Az. Time Alt. Az. Time Alt. Az.
16 Jun ? 01:32:50 10° SE 01:35:53 15° E 01:38:56 10° ENE visible
17 Jun ? 01:09:57 10° ESE 01:12:08 12° E 01:14:20 10° ENE visible
17 Jun ? 02:49:12 10° SSW 02:54:38 64° ESE 03:00:01 10° NE visible
18 Jun ? 02:25:24 10° S 02:30:45 54° ESE 02:36:03 10° NE visible
19 Jun ? 02:01:54 11° S 02:06:52 45° ESE 02:12:03 10° NE visible
20 Jun ? 01:38:32 13° S 01:43:02 38° ESE 01:48:02 10° NE visible
21 Jun ? 01:15:07 13° SSE 01:19:11 32° ESE 01:23:58 10° NE visible
21 Jun ? 02:57:05 10° SW 03:02:29 57° NW 03:07:50 10° NNE visible
22 Jun ? 00:51:40 14° SSE 00:55:22 27° ESE 00:59:53 10° NE visible
22 Jun ? 02:33:03 10° SW 02:38:31 66° NW 02:43:55 10° NNE visible
23 Jun ? 00:28:11 13° SSE 00:31:34 23° ESE 00:35:44 10° NE visible
23 Jun ? 02:09:22 12° SW 02:14:33 77° NW 02:20:00 10° NNE visible
24 Jun ? 00:04:41 12° SE 00:07:47 19° ESE 00:11:30 10° ENE visible
24 Jun ? 01:45:51 14° SSW 01:50:36 89° W 01:56:04 10° NNE visible
24 Jun ? 23:41:08 11° SE 23:44:00 16° E 23:47:11 10° ENE visible
25 Jun ? 01:22:18 16° SSW 01:26:41 79° ESE 01:32:07 10° NE visible
25 Jun ? 23:17:52 10° SE 23:20:15 13° E 23:22:38 10° ENE visible
